TimeCST,TemperatureF,Dew PointF,Humidity,Sea Level PressureIn,VisibilityMPH,Wind Direction,Wind SpeedMPH,Gust SpeedMPH,PrecipitationIn,Events,Conditions,WindDirDegrees,DateUTC
12:15 AM,-13.0,-21.6,65,30.64,10.0,NNW,5.8,-,N/A,,Clear,340,2013-01-24 06:15:00
12:35 AM,-12.6,-21.5,65,30.64,10.0,NNW,6.9,-,N/A,,Clear,330,2013-01-24 06:35:00
12:55 AM,-13.0,-21.5,66,30.64,10.0,WNW,3.5,-,N/A,,Clear,290,2013-01-24 06:55:00
1:15 AM,-14.3,-23.1,65,30.64,10.0,NW,4.6,-,N/A,,Clear,320,2013-01-24 07:15:00
1:35 AM,-13.5,-21.6,67,30.65,10.0,NW,4.6,-,N/A,,Clear,320,2013-01-24 07:35:00
1:55 AM,-14.3,-22.0,68,30.66,10.0,NNW,4.6,-,N/A,,Clear,340,2013-01-24 07:55:00
2:15 AM,-14.6,-23.1,66,30.66,10.0,NW,5.8,-,N/A,,Clear,310,2013-01-24 08:15:00
2:35 AM,-15.3,-23.3,67,30.66,10.0,NNW,4.6,-,N/A,,Clear,330,2013-01-24 08:35:00
2:55 AM,-15.9,-23.4,69,30.66,10.0,NW,5.8,-,N/A,,Clear,320,2013-01-24 08:55:00
3:15 AM,-16.2,-24.0,68,30.66,10.0,NW,6.9,-,N/A,,Scattered Clouds,310,2013-01-24 09:15:00
3:35 AM,-16.6,-24.2,69,30.66,10.0,NW,6.9,-,N/A,,Mostly Cloudy,320,2013-01-24 09:35:00
3:55 AM,-15.7,-23.1,69,30.66,10.0,NW,4.6,-,N/A,,Scattered Clouds,310,2013-01-24 09:55:00
4:15 AM,-16.6,-24.0,69,30.66,10.0,NW,4.6,-,N/A,,Clear,320,2013-01-24 10:15:00
4:35 AM,-14.8,-22.7,68,30.66,10.0,WNW,4.6,-,N/A,,Clear,290,2013-01-24 10:35:00
4:55 AM,-15.9,-23.1,70,30.66,10.0,WSW,3.5,-,N/A,,Clear,240,2013-01-24 10:55:00
5:15 AM,-17.0,-23.8,71,30.66,10.0,West,4.6,-,N/A,,Clear,260,2013-01-24 11:15:00
5:35 AM,-16.8,-23.3,72,30.67,10.0,SW,5.8,-,N/A,,Scattered Clouds,230,2013-01-24 11:35:00
5:55 AM,-16.6,-23.4,71,30.67,10.0,SW,4.6,-,N/A,,Overcast,230,2013-01-24 11:55:00
6:15 AM,-16.6,-23.4,71,30.69,10.0,WSW,4.6,-,N/A,,Overcast,240,2013-01-24 12:15:00
6:35 AM,-16.1,-22.9,71,30.69,10.0,WSW,3.5,-,N/A,,Overcast,250,2013-01-24 12:35:00
6:55 AM,-15.9,-22.9,71,30.69,10.0,Calm,Calm,-,N/A,,Mostly Cloudy,0,2013-01-24 12:55:00
7:15 AM,-16.1,-22.9,71,30.68,10.0,Calm,Calm,-,N/A,,Scattered Clouds,0,2013-01-24 13:15:00
7:35 AM,-16.6,-23.1,72,30.69,10.0,Calm,Calm,-,N/A,,Clear,0,2013-01-24 13:35:00
7:55 AM,-16.6,-23.1,72,30.68,10.0,SW,3.5,-,N/A,,Clear,220,2013-01-24 13:55:00
8:15 AM,-16.6,-23.1,72,30.67,10.0,SSW,4.6,-,N/A,,Clear,210,2013-01-24 14:15:00
8:35 AM,-15.9,-22.5,72,30.67,10.0,SW,4.6,-,N/A,,Clear,230,2013-01-24 14:35:00
8:55 AM,-15.5,-22.2,72,30.66,10.0,SW,4.6,-,N/A,,Clear,230,2013-01-24 14:55:00
9:15 AM,-14.1,-21.3,70,30.67,10.0,SW,4.6,-,N/A,,Clear,230,2013-01-24 15:15:00
9:35 AM,-12.5,-20.4,68,30.65,10.0,Calm,Calm,-,N/A,,Clear,0,2013-01-24 15:35:00
9:55 AM,-11.2,-19.8,66,30.65,10.0,Calm,Calm,-,N/A,,Clear,0,2013-01-24 15:55:00
10:15 AM,-9.9,-19.5,63,30.65,10.0,SW,3.5,-,N/A,,Clear,230,2013-01-24 16:15:00
10:35 AM,-8.5,-19.3,59,30.64,10.0,Calm,Calm,-,N/A,,Clear,0,2013-01-24 16:35:00
10:55 AM,-7.1,-18.0,59,30.64,10.0,Calm,Calm,-,N/A,,Clear,0,2013-01-24 16:55:00
11:15 AM,-6.0,-15.7,63,30.63,10.0,Calm,Calm,-,N/A,,Clear,0,2013-01-24 17:15:00
11:35 AM,-5.3,-15.0,63,30.63,10.0,Calm,Calm,-,N/A,,Clear,0,2013-01-24 17:35:00
11:55 AM,-4.0,-13.9,63,30.62,10.0,Calm,Calm,-,N/A,,Clear,0,2013-01-24 17:55:00
12:15 PM,-2.9,-13.4,61,30.60,10.0,Calm,Calm,-,N/A,,Clear,0,2013-01-24 18:15:00
12:35 PM,-2.4,-13.0,61,30.58,10.0,Calm,Calm,-,N/A,,Clear,0,2013-01-24 18:35:00
12:55 PM,-1.7,-13.0,59,30.57,10.0,Calm,Calm,-,N/A,,Clear,0,2013-01-24 18:55:00
1:15 PM,-1.5,-12.5,60,30.57,10.0,Calm,Calm,-,N/A,,Clear,0,2013-01-24 19:15:00
1:35 PM,-0.8,-11.7,60,30.56,10.0,Calm,Calm,-,N/A,,Mostly Cloudy,0,2013-01-24 19:35:00
1:55 PM,-0.4,-11.6,59,30.54,10.0,Calm,Calm,-,N/A,,Overcast,0,2013-01-24 19:55:00
2:15 PM,-0.2,-11.4,59,30.53,10.0,Calm,Calm,-,N/A,,Overcast,0,2013-01-24 20:15:00
2:35 PM,0.3,-11.2,58,30.52,10.0,Calm,Calm,-,N/A,,Overcast,0,2013-01-24 20:35:00
2:55 PM,1.4,-10.7,57,30.51,10.0,NE,3.5,-,N/A,,Mostly Cloudy,50,2013-01-24 20:55:00
3:15 PM,1.6,-10.7,57,30.50,10.0,Calm,Calm,-,N/A,,Mostly Cloudy,0,2013-01-24 21:15:00
3:35 PM,1.4,-10.3,58,30.49,10.0,Calm,Calm,-,N/A,,Overcast,0,2013-01-24 21:35:00
3:55 PM,1.4,-9.9,59,30.46,10.0,Calm,Calm,-,N/A,,Overcast,0,2013-01-24 21:55:00
4:15 PM,1.9,-9.4,59,30.45,10.0,Calm,Calm,-,N/A,,Overcast,0,2013-01-24 22:15:00
4:35 PM,1.9,-9.0,60,30.44,10.0,Calm,Calm,-,N/A,,Overcast,0,2013-01-24 22:35:00
4:55 PM,2.1,-8.9,60,30.43,10.0,Calm,Calm,-,N/A,,Overcast,0,2013-01-24 22:55:00
5:15 PM,2.3,-8.0,62,30.42,10.0,Calm,Calm,-,N/A,,Overcast,0,2013-01-24 23:15:00
5:35 PM,2.3,-7.4,64,30.41,10.0,Calm,Calm,-,N/A,,Overcast,0,2013-01-24 23:35:00
5:55 PM,2.7,-6.9,64,30.40,10.0,Calm,Calm,-,N/A,,Overcast,0,2013-01-24 23:55:00
6:15 PM,2.8,-5.8,67,30.38,5.0,Calm,Calm,-,N/A,,Haze,0,2013-01-25 00:15:00
6:35 PM,2.8,-3.8,74,30.39,3.0,Calm,Calm,-,N/A,Snow,Light Snow,0,2013-01-25 00:35:00
6:55 PM,3.4,-2.0,78,30.37,2.5,East,4.6,-,N/A,Snow,Light Snow,80,2013-01-25 00:55:00
7:35 PM,3.9,-0.0,84,30.34,1.0,Calm,Calm,-,N/A,Snow,Snow,0,2013-01-25 01:35:00
7:55 PM,3.9,0.3,85,30.33,1.5,Calm,Calm,-,0.01,Snow,Light Snow,0,2013-01-25 01:55:00
8:15 PM,4.1,0.5,85,30.32,3.0,Calm,Calm,-,N/A,Snow,Light Snow,0,2013-01-25 02:15:00
8:35 PM,4.5,0.5,84,30.29,5.0,East,4.6,-,N/A,Snow,Light Snow,100,2013-01-25 02:35:00
8:55 PM,4.6,0.5,83,30.29,10.0,East,4.6,-,N/A,,Overcast,100,2013-01-25 02:55:00
9:15 PM,4.8,0.5,82,30.27,10.0,Calm,Calm,-,N/A,,Overcast,0,2013-01-25 03:15:00
9:35 PM,4.8,0.5,82,30.26,10.0,Calm,Calm,-,N/A,,Overcast,0,2013-01-25 03:35:00
9:55 PM,5.0,0.5,82,30.26,10.0,Calm,Calm,-,N/A,,Overcast,0,2013-01-25 03:55:00
10:15 PM,5.4,0.5,80,30.24,10.0,East,3.5,-,N/A,,Overcast,100,2013-01-25 04:15:00
10:35 PM,5.7,0.5,79,30.22,10.0,Calm,Calm,-,N/A,,Overcast,0,2013-01-25 04:35:00
10:55 PM,5.9,0.3,78,30.22,10.0,Calm,Calm,-,N/A,,Overcast,0,2013-01-25 04:55:00
11:15 PM,6.3,0.5,77,30.20,10.0,Calm,Calm,-,N/A,,Overcast,0,2013-01-25 05:15:00
11:35 PM,6.8,0.5,75,30.19,10.0,SSW,4.6,-,N/A,,Overcast,210,2013-01-25 05:35:00
11:55 PM,7.5,0.3,72,30.18,10.0,SW,5.8,-,N/A,,Overcast,220,2013-01-25 05:55:00